SCP
0 0 0 0 0 0 0 0 0 0 0 0 0 0 0 0 0 0 0 0 0 0 0 0 0 0 0 0 0 0 0 0 0 0 0 0 0 0 0 0 0 0 0 0 0 0 0
-0 -0 -0 0 0 0 0 0 0 0 0 -0 0 0 0 0 0 0 0 0 0 0 0 0 0 0 0 0 0 0 0 0 0 0 0 0 -0 -0 0 0 0 -0 0 0 0 0 0
-0 -0 0 0 0 0 0 0 0 -0 -0 -0 -0 0 0 0 0 0 0 0 0 0 0 0 0 0 0 0 0 0 0 0 0 0 -0 -0 -0 0 0 0 0 0 0 0 0 0 0
0 -0 0 0 0 0 0 0 0 0 0 -0 -0 0 0 0 0 0 0 0 0 0 0 0 0 0 0 0 0 -0 0 -0 -0 -0 -0 -0 0 0 0 0 0 0 0 0 0 0 0
0 0 0 0 0 0 0 0 0 -0 -0 0 0 0 -0 -0 0 0 0 0 -0 -0 0 0 0 0 0 0 0 -0 0 -0 0 0 0 0 0 0 0 0 0 0 0 0 0 0 0
-0 0 0 0 0 0 0 -0 0 0 0 -0 -0 0 0 -0 0 0 -0 0 -0 0 0 0 0 0 0 0 -0 -0 0 0 0 0 0 0 0 0 0 -0 0 0 0 0 0 -0 0
0 0 0 0 0 0 0 0 0 -0 -0 -0 -0 -0 -0 -0 0 0 0 -0 0 0 0 0 0 -0 0 0 -0 0 0 -0 0 0 0 0 0 -0 -0 -0 -0 0 0 0 0 -0 0
0 0 0 0 0 0 0 0 0 -0 -0 -0 -0 -0 -0 -0 0 0 -0 0 0 0 0 -0 -0 0 0 0 -0 -0 0 0 0 0 0 0 0 0 -0 -0 0 -0 0 0 0 0 0
0 0 0 0 0 0 0 0 0 -0 -0 -0 -0 -0 -0 -0 -0 0 0 0 0 -0 0 0 -0 0 0 0 -0 0 0 0 -0 0 -0 0 0 0 0 0 0 0 0 0 0 0 0
0 0 0 0 0 0 0 0 0 0 0 0 -0 -0 -0 -0 0 0 0 0 0 -0 0 0 -0 -0 0 -0 -0 0 0 -0 -0 -0 -0 -0 0 0 0 0 0 0 0 0 0 0 0
0 0 0 0 0 0 0 0 0 0 -0 -0 0 -0 0 0 0 0 -0 0 -0 0 0 0 -0 -0 0 -0 -0 0 0 0 0 -0 -0 0 0 0 0 0 0 0 0 0 0 0 0
0 0 0 0 0 0 0 0 0 -0 -0 -0 -0 -0 -0 0 0 0 0 0 0 0 0 0 -0 -0 0 -0 0 0 0 0 0 0 0 0 0 0 0 0 0 0 0 0 0 0 0
0 0 0 0 0 0 0 0 0 0 -0 -0 -0 -0 0 0 0 0 0 0 0 0 0 0 0 0 0 0 0 0 0 0 -0 0 0 0 0 0 0 0 0 0 0 0 0 0 0
0 0 0 0 0 0 0 0 0 0 -0 -0 -0 -0 0 0 0 0 0 0 0 0 0 0 0 0 0 0 0 -0 0 -0 0 0 0 0 0 0 0 0 0 0 0 0 0 0 0
0 0 0 0 0 0 0 0 0 -0 0 -0 -0 0 0 0 0 0 0 0 0 0 0 0 0 0 0 0 0 0 0 0 -0 0 0 0 0 0 0 0 0 0 0 0 0 0 0
0 0 0 0 0 0 0 0 0 -0 -0 -0 0 0 -0 0 0 0 0 0 0 0 0 0 0 0 0 0 0 0 0 0 0 0 0 0 0 0 0 0 0 0 0 0 0 0 0
0 0 0 0 0 0 0 0 0 0 -0 0 0 0 0 0 0 0 0 0 0 -0 0 0 -0 0 0 0 0 0 0 0 0 0 0 0 0 0 0 0 0 0 0 0 0 0 0
0 0 0 0 0 0 0 0 0 0 0 -0 0 0 0 0 0 0 0 0 0 0 0 0 0 0 0 0 0 0 0 0 0 0 0 0 0 0 0 0 0 0 0 0 0 0 0
0 0 0 0 0 0 0 0 0 0 -0 0 0 0 0 -0 0 0 0 0 0 0 0 0 0 0 0 0 0 0 0 0 0 0 0 0 0 0 0 0 0 0 0 0 0 0 0
0 0 0 0 0 0 0 0 0 -0 -0 0 0 0 0 0 0 0 0 0 0 0 0 0 0 0 0 0 0 0 0 0 0 0 0 0 0 0 0 0 0 0 0 0 0 0 0
0 0 0 0 0 0 0 0 -0 -0 -0 0 0 0 0 0 0 0 0 0 0 0 0 0 0 0 0 0 0 0 0 0 0 0 0 0 0 0 0 0 0 0 0 0 0 0 0
0 0 0 0 0 0 0 -0 -0 -0 -0 0 0 0 0 0 0 0 0 0 0 0 0 0 0 0 0 0 0 0 0 0 0 0 0 0 0 0 0 0 0 0 0 0 0 0 0
0 0 0 0 -0 -0 -0 -0 -0 -0 0 0 0 0 0 0 0 0 0 0 0 0 0 0 0 0 0 0 0 0 0 0 0 0 0 0 0 0 0 0 0 0 0 0 0 0 0
0 0 0 -0 -0 -0 -0 -0 -0 -0 0 0 0 0 0 0 0 0 0 0 0 0 0 0 0 0 0 0 0 0 0 0 0 0 0 0 0 0 0 0 0 0 0 0 0 0 0
0 0 0 -0 -0 -0 -0 -0 -0 -0 -0 0 0 0 0 0 0 0 -0 0 0 0 0 0 0 0 0 0 0 0 0 0 0 0 0 0 0 0 0 0 0 0 0 0 0 0 0
0 0 -0 -0 -0 -0 -0 -0 -0 -0 -0 0 0 0 0 0 0 0 0 0 0 0 0 0 0 0 0 0 0 0 0 0 0 0 0 0 0 0 0 0 0 0 0 0 0 0 0
0 0 -0 -0 -0 -0 -0 -0 -0 -0 -0 0 0 0 0 0 0 0 0 0 0 0 0 0 0 0 0 0 0 0 0 0 0 0 0 0 0 0 0 0 0 0 0 0 0 0 0
0 0 0 0 0 0 -0 -0 -0 0 -0 0 0 0 0 0 -0 -0 -0 -0 0 0 0 0 0 0 0 0 0 0 0 0 0 0 0 0 0 0 0 0 0 0 0 0 0 0 0
0 0 0 0 0 0 0 0 0 -0 -0 -0 0 0 -0 -0 -0 -0 -0 -0 0 -0 0 0 0 0 0 0 0 0 0 0 0 0 0 0 0 0 0 0 0 0 0 0 0 0 0
Wind_Speed_500mb
52 53 54 55 55 55 54 53 52 50 47 44 41 38 37 34 30 27 23 20 17 18 18 19 21 22 23 17 39 20 19 12 23 27 34 31 29 31 10 14 14 11 27 49 66 60 53
53 54 55 55 56 57 57 56 54 53 51 48 42 38 36 34 31 27 23 19 17 17 17 18 19 20 21 12 10 18 17 27 23 28 38 42 29 29 15 19 15 15 39 49 52 63 38
55 56 56 56 57 57 58 58 57 55 53 51 47 41 35 34 30 26 23 20 17 17 17 17 20 21 29 47 10 10 20 22 19 26 45 46 29 19 4 10 44 44 14 16 29 34 17
55 56 56 57 57 57 58 59 59 58 56 54 51 45 36 32 30 26 23 20 18 17 18 17 20 24 25 12 25 20 13 18 21 26 36 27 29 34 32 14 13 3 7 8 13 16 13
55 56 57 57 58 58 59 59 59 59 57 55 54 48 40 32 29 26 23 21 20 18 20 20 16 15 26 12 37 26 24 24 18 23 32 28 27 21 10 5 11 10 6 7 13 15 8
56 57 58 58 59 59 60 60 60 60 60 58 56 53 46 34 30 28 26 24 23 24 18 10 15 11 29 24 28 35 31 25 26 24 37 28 8 5 7 8 10 8 5 12 15 18 13
57 58 58 59 61 61 61 61 61 61 60 59 57 55 48 39 30 29 27 22 9 7 22 27 19 29 26 16 32 31 37 48 40 28 13 6 5 12 21 13 9 9 13 29 26 12 13
58 58 59 60 60 62 63 64 63 63 63 61 59 55 51 42 31 29 30 20 26 7 22 44 48 59 56 32 11 37 39 35 19 15 6 9 15 23 15 16 16 15 11 15 11 16 16
60 61 62 63 63 63 63 65 64 64 64 65 62 57 50 44 34 30 35 33 26 38 10 40 33 42 46 26 35 47 44 48 9 10 12 15 25 21 22 24 16 7 12 9 8 10 16
63 63 64 64 65 65 65 66 67 67 66 66 65 61 50 41 28 21 29 9 20 41 4 12 12 17 26 31 17 60 50 36 9 18 8 12 32 20 13 6 9 8 10 12 14 11 4
65 66 67 67 68 68 68 68 69 70 70 68 68 64 50 39 26 33 10 20 35 6 6 10 10 42 27 20 17 33 52 46 22 18 7 17 7 12 8 11 10 7 7 11 10 8 4
67 68 69 70 70 70 70 71 72 72 72 71 68 67 55 42 35 21 13 16 7 9 10 9 5 12 9 23 31 44 44 47 30 11 9 19 4 7 13 8 13 9 13 18 10 9 3
68 69 70 70 72 72 72 72 73 75 74 76 70 65 57 39 26 4 6 6 9 6 9 9 9 12 7 10 21 16 21 16 15 7 5 1 17 13 10 13 8 16 13 8 8 8 10
68 69 70 71 72 73 73 75 77 76 78 79 72 67 40 25 21 22 10 9 6 11 14 5 8 9 6 13 13 37 20 24 10 10 5 6 1 6 4 13 15 10 16 10 9 5 9
68 69 70 70 71 73 74 74 78 79 76 79 72 58 20 3 28 27 15 6 14 9 5 6 10 10 10 21 23 9 9 15 17 16 15 9 6 3 12 8 13 4 5 11 11 3 6
67 68 70 71 71 71 73 74 75 83 76 76 69 44 5 6 31 32 10 9 8 5 1 7 7 4 25 17 18 13 19 43 32 14 16 13 8 1 4 13 8 11 9 6 7 7 7
68 69 69 70 71 72 72 74 73 79 80 68 43 23 4 21 38 16 8 14 13 26 22 12 8 4 11 4 15 7 29 27 3 7 17 9 9 7 9 6 14 7 2 9 10 10 10
69 69 69 68 69 71 71 71 72 74 85 63 27 7 3 34 8 4 6 9 18 11 14 10 7 8 21 14 9 13 13 3 20 6 10 4 10 8 8 3 8 9 15 11 10 8 4
68 70 71 67 66 68 69 68 69 64 80 73 41 13 18 26 5 6 11 7 8 5 4 9 12 15 18 17 14 21 25 3 17 8 14 10 4 6 14 13 13 11 5 9 9 6 10
67 69 69 65 63 65 65 63 66 61 65 44 13 8 12 15 9 4 8 7 6 8 5 5 9 11 2 11 9 10 24 20 13 14 22 16 8 13 13 10 6 2 8 4 11 8 9
67 65 63 60 59 58 61 59 62 60 53 24 13 7 13 6 9 8 6 7 7 7 8 11 6 8 8 6 15 6 7 6 15 8 9 10 9 7 7 3 4 8 4 12 5 12 9
66 63 58 57 56 57 58 57 58 57 53 20 17 14 22 17 25 11 8 6 8 8 9 3 9 4 10 6 1 6 7 7 5 2 6 5 8 7 2 6 6 8 12 15 13 10 3
64 60 57 54 55 58 59 54 53 53 56 25 36 15 6 15 13 9 11 7 13 9 8 15 9 7 10 6 9 15 0 2 14 11 5 8 12 7 8 7 3 8 4 8 10 11 2
62 61 58 54 54 56 54 49 44 45 46 45 34 17 10 7 7 9 20 14 16 14 6 21 5 11 7 3 7 10 6 9 10 8 13 10 8 6 7 8 5 8 15 16 27 13 12
63 61 60 56 52 50 48 44 41 39 39 41 25 9 9 7 13 18 32 18 26 42 20 16 28 12 8 0 7 8 10 13 13 13 13 7 10 6 8 7 6 8 11 9 5 4 11
62 59 59 55 52 44 45 43 39 36 37 37 7 12 8 11 4 27 9 21 6 9 14 19 38 13 7 7 7 6 6 9 2 8 11 18 14 9 5 4 8 6 15 32 14 4 13
62 59 57 53 47 42 40 38 36 35 34 33 15 10 11 9 9 30 10 12 23 12 2 8 29 20 24 6 5 5 3 5 8 8 9 8 7 6 5 1 4 5 32 22 3 5 19
62 58 56 52 46 39 34 35 34 35 33 27 6 10 8 9 22 13 24 27 24 22 4 15 8 16 11 9 5 3 5 5 9 5 5 6 6 4 4 2 3 6 7 6 8 15 24
61 58 53 47 41 35 31 32 32 33 32 26 19 15 18 15 12 25 10 15 9 24 11 16 7 3 5 6 5 4 7 8 5 5 9 7 3 4 6 3 7 14 3 4 15 30 40
Wind_Direction_500mb
11 10 9 7 5 3 0 358 356 353 347 340 333 330 332 330 325 320 311 301 288 278 273 271 274 283 287 276 257 247 276 211 178 188 183 191 199 207 188 206 237 202 248 247 248 257 261
9 8 6 4 3 2 360 358 356 355 351 346 338 329 326 328 326 320 312 302 290 282 276 272 273 277 274 265 296 192 210 217 215 197 186 197 206 212 239 220 170 232 240 250 254 253 254
8 6 4 2 2 360 358 358 357 355 353 349 343 335 325 323 325 319 310 300 290 281 276 273 274 273 269 256 268 245 229 228 216 200 187 199 208 229 233 277 255 252 266 271 247 236 228
6 4 2 1 0 359 358 357 356 355 352 350 347 340 327 317 319 318 311 303 295 286 280 276 274 275 261 311 198 191 193 202 206 199 190 204 227 253 243 262 311 353 156 191 273 168 233
4 2 0 359 358 358 358 357 356 354 352 350 347 342 334 315 310 313 314 307 295 285 280 278 257 238 262 266 206 201 199 186 171 190 218 257 273 215 225 61 1 6 250 243 293 214 130
2 0 358 356 355 355 355 356 355 353 351 350 347 344 337 322 304 304 306 307 295 281 267 232 221 274 251 229 201 194 201 204 221 227 247 259 222 54 32 85 219 236 277 268 228 239 149
358 357 356 355 353 352 351 352 352 352 349 347 346 342 337 325 305 295 297 305 285 229 220 224 234 219 285 204 195 197 215 215 226 223 182 224 111 213 226 209 210 243 287 256 238 218 118
354 352 352 351 351 350 349 348 348 348 349 346 344 341 338 328 310 287 285 269 238 66 295 283 270 252 260 257 268 212 200 204 204 208 143 22 237 228 230 235 235 269 235 354 359 18 88
350 350 349 348 348 347 347 345 344 344 345 345 342 340 335 328 312 285 275 252 273 320 277 293 250 239 256 221 224 211 195 214 183 200 185 181 239 221 219 239 186 91 82 37 43 346 54
349 348 347 346 345 345 344 343 342 341 341 342 341 338 331 327 308 285 267 9 348 330 13 271 208 252 227 239 218 203 194 203 190 223 179 217 254 236 129 75 113 88 126 81 49 64 172
347 346 345 345 344 343 342 341 339 338 338 337 338 336 325 318 280 268 233 311 318 144 331 250 235 224 233 193 174 191 200 199 221 239 133 244 355 175 128 158 111 151 100 101 126 88 27
345 344 344 343 343 343 342 339 338 336 334 334 334 333 316 308 272 272 288 315 323 55 255 284 251 195 141 207 220 193 198 207 226 207 219 206 266 218 154 128 113 124 50 30 57 108 91
342 342 341 341 341 342 342 339 336 334 332 332 331 330 312 287 260 185 155 31 47 166 281 341 352 2 5 188 205 151 192 203 215 134 297 17 148 275 137 104 32 77 60 3 359 13 212
341 340 340 340 340 340 341 340 336 335 332 331 331 329 314 283 237 222 227 71 155 253 263 235 3 5 15 19 291 176 210 218 240 126 115 146 55 195 204 153 161 164 140 150 202 202 259
339 339 340 340 340 340 341 340 338 335 333 333 334 333 336 342 193 171 149 107 192 217 271 343 355 17 300 359 345 93 48 291 226 166 152 141 200 55 82 114 125 161 96 177 120 27 75
339 340 340 341 341 342 343 342 342 336 335 338 338 328 322 142 161 147 83 210 223 280 60 58 163 227 235 353 338 24 114 266 255 185 142 183 114 78 168 64 36 126 160 43 13 157 201
337 337 337 338 340 342 344 344 346 340 335 339 341 327 119 150 157 144 162 217 222 261 265 148 141 216 211 161 271 276 173 263 128 101 94 123 102 271 82 165 174 33 31 75 119 137 163
334 334 333 333 335 338 341 343 348 348 339 340 345 334 209 171 98 155 181 207 222 291 117 103 122 154 305 176 313 342 335 332 110 139 89 76 121 130 202 296 197 176 200 136 128 233 175
334 335 334 333 333 334 337 340 344 352 350 337 325 282 42 222 62 347 307 296 203 150 165 135 167 169 220 276 247 231 281 335 117 94 156 180 47 61 350 355 5 58 93 117 99 70 195
339 338 339 339 337 336 338 340 340 349 351 335 318 337 15 42 83 81 6 288 359 326 162 137 150 136 30 305 260 168 154 205 152 132 126 104 121 148 185 192 163 180 322 301 150 133 203
344 343 344 343 344 341 343 345 344 352 359 9 4 352 11 343 329 328 208 258 311 338 83 39 43 108 129 6 334 15 61 113 21 76 68 100 129 132 157 207 186 181 273 313 221 226 179
347 349 349 350 350 347 347 348 351 355 11 45 17 3 345 306 307 317 351 337 72 13 94 33 85 43 98 96 237 346 343 74 188 309 72 4 180 130 148 235 255 305 298 288 289 357 318
349 348 348 348 349 349 353 352 354 356 9 22 3 346 321 302 328 13 336 1 19 27 23 143 168 104 81 177 260 266 332 151 144 146 136 135 128 99 238 207 330 329 72 68 111 47 326
348 349 348 348 349 351 356 354 355 358 3 2 2 345 341 304 325 340 342 3 10 12 345 319 57 123 194 356 290 317 11 138 155 93 139 133 91 89 206 75 210 157 48 88 110 88 60
349 349 349 349 349 352 354 353 355 355 358 359 1 29 350 307 317 338 350 5 12 21 17 46 33 25 325 76 64 36 350 10 70 36 67 112 113 111 153 172 288 100 19 16 12 138 41
350 348 348 348 349 349 352 352 354 354 357 4 83 34 332 313 264 339 313 26 21 342 2 357 8 45 355 84 57 126 194 225 298 135 10 61 86 108 90 112 222 355 313 331 304 239 32
349 348 347 348 348 348 349 350 353 355 360 11 39 342 337 296 300 350 352 7 29 9 47 328 340 352 19 56 62 61 351 305 42 47 341 22 21 79 104 150 79 325 317 343 105 285 315
349 349 349 348 347 345 342 347 349 352 353 9 49 29 360 292 292 350 357 7 11 37 71 310 12 6 25 55 80 342 66 44 87 2 41 79 43 52 42 325 248 274 347 45 261 307 316
350 350 350 353 354 349 344 344 342 343 342 343 348 300 261 261 284 321 29 47 42 18 6 37 108 332 28 81 38 88 39 31 115 82 18 57 33 138 120 229 271 283 190 255 308 306 312
Wind_Speed_850mb
52 53 54 55 55 55 54 53 52 50 47 44 41 38 37 34 30 27 23 20 17 18 18 19 21 22 23 17 39 20 19 12 23 27 34 31 29 31 10 14 14 11 27 49 66 60 53
53 54 55 55 56 57 57 56 54 53 51 48 42 38 36 34 31 27 23 19 17 17 17 18 19 20 21 12 10 18 17 27 23 28 38 42 29 29 15 19 15 15 39 49 52 63 38
55 56 56 56 57 57 58 58 57 55 53 51 47 41 35 34 30 26 23 20 17 17 17 17 20 21 29 47 10 10 20 22 19 26 45 46 29 19 4 10 44 44 14 16 29 34 17
55 56 56 57 57 57 58 59 59 58 56 54 51 45 36 32 30 26 23 20 18 17 18 17 20 24 25 12 25 20 13 18 21 26 36 27 29 34 32 14 13 3 7 8 13 16 13
55 56 57 57 58 58 59 59 59 59 57 55 54 48 40 32 29 26 23 21 20 18 20 20 16 15 26 12 37 26 24 24 18 23 32 28 27 21 10 5 11 10 6 7 13 15 8
56 57 58 58 59 59 60 60 60 60 60 58 56 53 46 34 30 28 26 24 23 24 18 10 15 11 29 24 28 35 31 25 26 24 37 28 8 5 7 8 10 8 5 12 15 18 13
57 58 58 59 61 61 61 61 61 61 60 59 57 55 48 39 30 29 27 22 9 7 22 27 19 29 26 16 32 31 37 48 40 28 13 6 5 12 21 13 9 9 13 29 26 12 13
58 58 59 60 60 62 63 64 63 63 63 61 59 55 51 42 31 29 30 20 26 7 22 44 48 59 56 32 11 37 39 35 19 15 6 9 15 23 15 16 16 15 11 15 11 16 16
60 61 62 63 63 63 63 65 64 64 64 65 62 57 50 44 34 30 35 33 26 38 10 40 33 42 46 26 35 47 44 48 9 10 12 15 25 21 22 24 16 7 12 9 8 10 16
63 63 64 64 65 65 65 66 67 67 66 66 65 61 50 41 28 21 29 9 20 41 4 12 12 17 26 31 17 60 50 36 9 18 8 12 32 20 13 6 9 8 10 12 14 11 4
65 66 67 67 68 68 68 68 69 70 70 68 68 64 50 39 26 33 10 20 35 6 6 10 10 42 27 20 17 33 52 46 22 18 7 17 7 12 8 11 10 7 7 11 10 8 4
67 68 69 70 70 70 70 71 72 72 72 71 68 67 55 42 35 21 13 16 7 9 10 9 5 12 9 23 31 44 44 47 30 11 9 19 4 7 13 8 13 9 13 18 10 9 3
68 69 70 70 72 72 72 72 73 75 74 76 70 65 57 39 26 4 6 6 9 6 9 9 9 12 7 10 21 16 21 16 15 7 5 1 17 13 10 13 8 16 13 8 8 8 10
68 69 70 71 72 73 73 75 77 76 78 79 72 67 40 25 21 22 10 9 6 11 14 5 8 9 6 13 13 37 20 24 10 10 5 6 1 6 4 13 15 10 16 10 9 5 9
68 69 70 70 71 73 74 74 78 79 76 79 72 58 20 3 28 27 15 6 14 9 5 6 10 10 10 21 23 9 9 15 17 16 15 9 6 3 12 8 13 4 5 11 11 3 6
67 68 70 71 71 71 73 74 75 83 76 76 69 44 5 6 31 32 10 9 8 5 1 7 7 4 25 17 18 13 19 43 32 14 16 13 8 1 4 13 8 11 9 6 7 7 7
68 69 69 70 71 72 72 74 73 79 80 68 43 23 4 21 38 16 8 14 13 26 22 12 8 4 11 4 15 7 29 27 3 7 17 9 9 7 9 6 14 7 2 9 10 10 10
69 69 69 68 69 71 71 71 72 74 85 63 27 7 3 34 8 4 6 9 18 11 14 10 7 8 21 14 9 13 13 3 20 6 10 4 10 8 8 3 8 9 15 11 10 8 4
68 70 71 67 66 68 69 68 69 64 80 73 41 13 18 26 5 6 11 7 8 5 4 9 12 15 18 17 14 21 25 3 17 8 14 10 4 6 14 13 13 11 5 9 9 6 10
67 69 69 65 63 65 65 63 66 61 65 44 13 8 12 15 9 4 8 7 6 8 5 5 9 11 2 11 9 10 24 20 13 14 22 16 8 13 13 10 6 2 8 4 11 8 9
67 65 63 60 59 58 61 59 62 60 53 24 13 7 13 6 9 8 6 7 7 7 8 11 6 8 8 6 15 6 7 6 15 8 9 10 9 7 7 3 4 8 4 12 5 12 9
66 63 58 57 56 57 58 57 58 57 53 20 17 14 22 17 25 11 8 6 8 8 9 3 9 4 10 6 1 6 7 7 5 2 6 5 8 7 2 6 6 8 12 15 13 10 3
64 60 57 54 55 58 59 54 53 53 56 25 36 15 6 15 13 9 11 7 13 9 8 15 9 7 10 6 9 15 0 2 14 11 5 8 12 7 8 7 3 8 4 8 10 11 2
62 61 58 54 54 56 54 49 44 45 46 45 34 17 10 7 7 9 20 14 16 14 6 21 5 11 7 3 7 10 6 9 10 8 13 10 8 6 7 8 5 8 15 16 27 13 12
63 61 60 56 52 50 48 44 41 39 39 41 25 9 9 7 13 18 32 18 26 42 20 16 28 12 8 0 7 8 10 13 13 13 13 7 10 6 8 7 6 8 11 9 5 4 11
62 59 59 55 52 44 45 43 39 36 37 37 7 12 8 11 4 27 9 21 6 9 14 19 38 13 7 7 7 6 6 9 2 8 11 18 14 9 5 4 8 6 15 32 14 4 13
62 59 57 53 47 42 40 38 36 35 34 33 15 10 11 9 9 30 10 12 23 12 2 8 29 20 24 6 5 5 3 5 8 8 9 8 7 6 5 1 4 5 32 22 3 5 19
62 58 56 52 46 39 34 35 34 35 33 27 6 10 8 9 22 13 24 27 24 22 4 15 8 16 11 9 5 3 5 5 9 5 5 6 6 4 4 2 3 6 7 6 8 15 24
61 58 53 47 41 35 31 32 32 33 32 26 19 15 18 15 12 25 10 15 9 24 11 16 7 3 5 6 5 4 7 8 5 5 9 7 3 4 6 3 7 14 3 4 15 30 40
Wind_Direction_850mb
11 10 9 7 5 3 0 358 356 353 347 340 333 330 332 330 325 320 311 301 288 278 273 271 274 283 287 276 257 247 276 211 178 188 183 191 199 207 188 206 237 202 248 247 248 257 261
9 8 6 4 3 2 360 358 356 355 351 346 338 329 326 328 326 320 312 302 290 282 276 272 273 277 274 265 296 192 210 217 215 197 186 197 206 212 239 220 170 232 240 250 254 253 254
8 6 4 2 2 360 358 358 357 355 353 349 343 335 325 323 325 319 310 300 290 281 276 273 274 273 269 256 268 245 229 228 216 200 187 199 208 229 233 277 255 252 266 271 247 236 228
6 4 2 1 0 359 358 357 356 355 352 350 347 340 327 317 319 318 311 303 295 286 280 276 274 275 261 311 198 191 193 202 206 199 190 204 227 253 243 262 311 353 156 191 273 168 233
4 2 0 359 358 358 358 357 356 354 352 350 347 342 334 315 310 313 314 307 295 285 280 278 257 238 262 266 206 201 199 186 171 190 218 257 273 215 225 61 1 6 250 243 293 214 130
2 0 358 356 355 355 355 356 355 353 351 350 347 344 337 322 304 304 306 307 295 281 267 232 221 274 251 229 201 194 201 204 221 227 247 259 222 54 32 85 219 236 277 268 228 239 149
358 357 356 355 353 352 351 352 352 352 349 347 346 342 337 325 305 295 297 305 285 229 220 224 234 219 285 204 195 197 215 215 226 223 182 224 111 213 226 209 210 243 287 256 238 218 118
354 352 352 351 351 350 349 348 348 348 349 346 344 341 338 328 310 287 285 269 238 66 295 283 270 252 260 257 268 212 200 204 204 208 143 22 237 228 230 235 235 269 235 354 359 18 88
350 350 349 348 348 347 347 345 344 344 345 345 342 340 335 328 312 285 275 252 273 320 277 293 250 239 256 221 224 211 195 214 183 200 185 181 239 221 219 239 186 91 82 37 43 346 54
349 348 347 346 345 345 344 343 342 341 341 342 341 338 331 327 308 285 267 9 348 330 13 271 208 252 227 239 218 203 194 203 190 223 179 217 254 236 129 75 113 88 126 81 49 64 172
347 346 345 345 344 343 342 341 339 338 338 337 338 336 325 318 280 268 233 311 318 144 331 250 235 224 233 193 174 191 200 199 221 239 133 244 355 175 128 158 111 151 100 101 126 88 27
345 344 344 343 343 343 342 339 338 336 334 334 334 333 316 308 272 272 288 315 323 55 255 284 251 195 141 207 220 193 198 207 226 207 219 206 266 218 154 128 113 124 50 30 57 108 91
342 342 341 341 341 342 342 339 336 334 332 332 331 330 312 287 260 185 155 31 47 166 281 341 352 2 5 188 205 151 192 203 215 134 297 17 148 275 137 104 32 77 60 3 359 13 212
341 340 340 340 340 340 341 340 336 335 332 331 331 329 314 283 237 222 227 71 155 253 263 235 3 5 15 19 291 176 210 218 240 126 115 146 55 195 204 153 161 164 140 150 202 202 259
339 339 340 340 340 340 341 340 338 335 333 333 334 333 336 342 193 171 149 107 192 217 271 343 355 17 300 359 345 93 48 291 226 166 152 141 200 55 82 114 125 161 96 177 120 27 75
339 340 340 341 341 342 343 342 342 336 335 338 338 328 322 142 161 147 83 210 223 280 60 58 163 227 235 353 338 24 114 266 255 185 142 183 114 78 168 64 36 126 160 43 13 157 201
337 337 337 338 340 342 344 344 346 340 335 339 341 327 119 150 157 144 162 217 222 261 265 148 141 216 211 161 271 276 173 263 128 101 94 123 102 271 82 165 174 33 31 75 119 137 163
334 334 333 333 335 338 341 343 348 348 339 340 345 334 209 171 98 155 181 207 222 291 117 103 122 154 305 176 313 342 335 332 110 139 89 76 121 130 202 296 197 176 200 136 128 233 175
334 335 334 333 333 334 337 340 344 352 350 337 325 282 42 222 62 347 307 296 203 150 165 135 167 169 220 276 247 231 281 335 117 94 156 180 47 61 350 355 5 58 93 117 99 70 195
339 338 339 339 337 336 338 340 340 349 351 335 318 337 15 42 83 81 6 288 359 326 162 137 150 136 30 305 260 168 154 205 152 132 126 104 121 148 185 192 163 180 322 301 150 133 203
344 343 344 343 344 341 343 345 344 352 359 9 4 352 11 343 329 328 208 258 311 338 83 39 43 108 129 6 334 15 61 113 21 76 68 100 129 132 157 207 186 181 273 313 221 226 179
347 349 349 350 350 347 347 348 351 355 11 45 17 3 345 306 307 317 351 337 72 13 94 33 85 43 98 96 237 346 343 74 188 309 72 4 180 130 148 235 255 305 298 288 289 357 318
349 348 348 348 349 349 353 352 354 356 9 22 3 346 321 302 328 13 336 1 19 27 23 143 168 104 81 177 260 266 332 151 144 146 136 135 128 99 238 207 330 329 72 68 111 47 326
348 349 348 348 349 351 356 354 355 358 3 2 2 345 341 304 325 340 342 3 10 12 345 319 57 123 194 356 290 317 11 138 155 93 139 133 91 89 206 75 210 157 48 88 110 88 60
349 349 349 349 349 352 354 353 355 355 358 359 1 29 350 307 317 338 350 5 12 21 17 46 33 25 325 76 64 36 350 10 70 36 67 112 113 111 153 172 288 100 19 16 12 138 41
350 348 348 348 349 349 352 352 354 354 357 4 83 34 332 313 264 339 313 26 21 342 2 357 8 45 355 84 57 126 194 225 298 135 10 61 86 108 90 112 222 355 313 331 304 239 32
349 348 347 348 348 348 349 350 353 355 360 11 39 342 337 296 300 350 352 7 29 9 47 328 340 352 19 56 62 61 351 305 42 47 341 22 21 79 104 150 79 325 317 343 105 285 315
349 349 349 348 347 345 342 347 349 352 353 9 49 29 360 292 292 350 357 7 11 37 71 310 12 6 25 55 80 342 66 44 87 2 41 79 43 52 42 325 248 274 347 45 261 307 316
350 350 350 353 354 349 344 344 342 343 342 343 348 300 261 261 284 321 29 47 42 18 6 37 108 332 28 81 38 88 39 31 115 82 18 57 33 138 120 229 271 283 190 255 308 306 312